Fort Myers - Cape Coral Weather Center

Moon Phase Calendar



Online Cameras

 


      

Current Conditions in Burnt Store Marina
6/15/2021 5:25:47 AM

77°F
Feels Like 79
Clouds
Humidity
92%
Pressure
29.94"
Wind
12.1 mph (WSW)
Dew Point
75°F
UV Index
0/10 (Low)
Visibility
6 mi

Hourly Forecast

Date & Time Tue, Jun 15
5:00 AM
Tue, Jun 15
6:00 AM
Tue, Jun 15
7:00 AM
Tue, Jun 15
8:00 AM
Tue, Jun 15
9:00 AM
Tue, Jun 15
10:00 AM
Tue, Jun 15
11:00 AM
Tue, Jun 15
12:00 PM
Tue, Jun 15
1:00 PM
Tue, Jun 15
2:00 PM
Tue, Jun 15
3:00 PM
Tue, Jun 15
4:00 PM
Tue, Jun 15
5:00 PM
Tue, Jun 15
6:00 PM
Tue, Jun 15
7:00 PM
Tue, Jun 15
8:00 PM
Tue, Jun 15
9:00 PM
Tue, Jun 15
10:00 PM
Tue, Jun 15
11:00 PM
Wed, Jun 16
12:00 AM
Wed, Jun 16
1:00 AM
Wed, Jun 16
2:00 AM
Wed, Jun 16
3:00 AM
Wed, Jun 16
4:00 AM
Wed, Jun 16
5:00 AM
Wed, Jun 16
6:00 AM
Wed, Jun 16
7:00 AM
Wed, Jun 16
8:00 AM
Wed, Jun 16
9:00 AM
Wed, Jun 16
10:00 AM
Wed, Jun 16
11:00 AM
Wed, Jun 16
12:00 PM
Wed, Jun 16
1:00 PM
Wed, Jun 16
2:00 PM
Wed, Jun 16
3:00 PM
Wed, Jun 16
4:00 PM
Wed, Jun 16
5:00 PM
Wed, Jun 16
6:00 PM
Wed, Jun 16
7:00 PM
Wed, Jun 16
8:00 PM
Wed, Jun 16
9:00 PM
Wed, Jun 16
10:00 PM
Wed, Jun 16
11:00 PM
Thu, Jun 17
12:00 AM
Thu, Jun 17
1:00 AM
Thu, Jun 17
2:00 AM
Thu, Jun 17
3:00 AM
Thu, Jun 17
4:00 AM
Condition
Clouds

Clouds

Clouds

Clouds

Clouds

Rain

Rain

Rain

Clouds

Rain

Clouds

Clouds

Clouds

Clouds

Clouds

Clouds

Clouds

Clouds

Clouds

Clouds

Clouds

Clouds

Clouds

Clouds

Clouds

Clouds

Clouds

Clouds

Clouds

Rain

Rain

Rain

Rain

Rain

Rain

Clouds

Clouds

Clouds

Clouds

Clouds

Rain

Rain

Rain

Rain

Rain

Clouds

Clouds

Clouds
Temperature 77°F78°F79°F80°F82°F84°F85°F85°F86°F87°F86°F85°F84°F83°F83°F82°F82°F82°F82°F82°F81°F81°F81°F81°F81°F81°F80°F82°F83°F84°F80°F78°F77°F76°F76°F77°F78°F79°F78°F76°F76°F75°F74°F73°F73°F73°F73°F73°F
Feels Like 79°F80°F79°F85°F87°F89°F90°F89°F91°F92°F90°F89°F87°F87°F86°F85°F85°F84°F84°F84°F84°F84°F84°F84°F84°F84°F84°F86°F87°F88°F80°F79°F78°F77°F77°F78°F79°F79°F79°F77°F77°F76°F75°F74°F74°F74°F74°F74°F
Cloudiness 100%100%100%100%100%100%100%100%100%100%100%100%100%100%100%100%100%100%100%100%100%100%100%100%100%100%100%100%100%100%100%100%100%100%100%100%100%100%100%100%100%100%100%100%100%100%100%100%
Visibility 6 mi6 mi6 mi6 mi6 mi6 mi6 mi6 mi6 mi6 mi6 mi6 mi6 mi6 mi6 mi6 mi6 mi6 mi6 mi6 mi6 mi6 mi6 mi6 mi6 mi6 mi6 mi6 mi6 mi4 mi6 mi6 mi6 mi6 mi6 mi6 mi6 mi6 mi6 mi6 mi6 mi6 mi6 mi6 mi6 mi6 mi6 mi6 mi
Precipitation 0%0%1%5%27%43%47%47%47%47%19%44%40%41%37%36%0%0%0%0%0%0%3%9%13%13%13%9%58%89%97%100%100%100%41%35%49%50%46%43%66%85%89%86%82%78%2%18%
Humidity 92%87%82%77%72%65%62%63%59%56%58%61%63%62%62%61%59%60%61%62%63%64%65%66%67%68%70%66%64%62%72%80%81%83%82%78%73%72%76%79%82%87%90%90%89%87%87%87%
Dew Point 75°F74°F73°F73°F72°F71°F70°F70°F70°F69°F69°F70°F70°F69°F68°F68°F67°F67°F67°F67°F68°F68°F69°F69°F69°F69°F70°F70°F69°F69°F70°F71°F71°F70°F70°F69°F69°F69°F70°F69°F70°F70°F70°F70°F70°F69°F69°F69°F
Pressure 29.94"29.94"29.94"29.97"30"30"30.03"30.03"30.03"30.03"30"30"30"30"30"30"30"30"30.03"30.03"30.03"30"30"29.97"29.97"30"29.97"30"30"30.03"30.06"30.06"30.06"30.06"30.03"30.03"30"30"30.03"30.03"30.06"30.06"30.06"30.06"30.03"30"30"30"
Wind Speed 12.1 mph11.3 mph10.8 mph10.9 mph11.1 mph12 mph11.3 mph11.9 mph12.6 mph14.6 mph14 mph14.4 mph13.2 mph11.7 mph13.3 mph12.4 mph8.9 mph3.2 mph3.3 mph5 mph4.4 mph5.2 mph6.7 mph2.9 mph6.3 mph5.1 mph3.8 mph4.9 mph4.7 mph7.3 mph14 mph6.7 mph7.9 mph6 mph6.3 mph7.3 mph7.8 mph9.3 mph10.8 mph12.2 mph13.9 mph14.4 mph11.2 mph9 mph9.4 mph9.6 mph8.6 mph7.2 mph
Wind
Direction
244°
WSW
242°
WSW
242°
WSW
241°
WSW
239°
WSW
239°
WSW
238°
WSW
238°
WSW
238°
WSW
244°
WSW
247°
WSW
261°
W
272°
W
263°
W
264°
W
253°
WSW
252°
WSW
238°
WSW
213°
SSW
200°
SSW
206°
SSW
207°
SSW
207°
SSW
193°
SSW
206°
SSW
192°
SSW
180°
S
191°
S
180°
S
203°
SSW
218°
SW
200°
SSW
208°
SSW
166°
SSE
120°
ESE
111°
ESE
119°
ESE
148°
SSE
164°
SSE
160°
SSE
153°
SSE
158°
SSE
154°
SSE
151°
SSE
152°
SSE
146°
SE
122°
ESE
131°
SE

Daily Forecast

Date High Low Precip. Humidity
Today
Jun 15

Rain
87 °F
77 °F
84%
59%
Wednesday
Jun 16

Rain
84 °F
74 °F
100%
81%
Thursday
Jun 17

Rain
81 °F
73 °F
100%
71%
Friday
Jun 18

Rain
88 °F
75 °F
72%
54%
Saturday
Jun 19

Rain
89 °F
80 °F
48%
57%
Sunday
Jun 20

Rain
89 °F
80 °F
88%
62%
Monday
Jun 21

Rain
88 °F
82 °F
35%
62%
Tuesday
Jun 22

Rain
89 °F
81 °F
56%
58%
Wednesday
Jun 23

Rain
90 °F
75 °F
96%
53%
Thursday
Jun 24

Rain
90 °F
77 °F
95%
47%
Friday
Jun 25

Rain
95 °F
77 °F
95%
43%
Saturday
Jun 26

Clouds
94 °F
79 °F
32%
43%
Sunday
Jun 27

Rain
93 °F
77 °F
44%
44%
Monday
Jun 28

Rain
91 °F
79 °F
71%
47%
Tuesday
Jun 29

Rain
92 °F
79 °F
60%
48%
Wednesday
Jun 30

Rain
92 °F
79 °F
63%
48%

Temperature 8-14 Day Outlook



Precipitation 8-14 Day Outlook




Quick Links
Fort Myers - Cape Coral News
Fort Myers - Cape Coral Photos
Fort Myers - Cape Coral Videos




About Us
Contact Us
Site Map
Search Site
Advertise With Us
   
FortMyers.USGulf.info
THE FORT MYERS - CAPE CORAL WEBSITE

Copyright 2021, Coastal Town
Privacy    |    Legal